TimeEST,TemperatureF,Dew PointF,Humidity,Sea Level PressureIn,VisibilityMPH,Wind Direction,Wind SpeedMPH,Gust SpeedMPH,PrecipitationIn,Events,Conditions,WindDirDegrees,DateUTC
12:56 AM,39.9,39.0,97,29.91,10.0,West,5.8,-,N/A,,Overcast,280,2014-01-17 05:56:00
1:54 AM,39.2,39.2,100,29.92,10.0,Calm,Calm,-,N/A,,Overcast,0,2014-01-17 06:54:00
1:56 AM,39.9,39.0,97,29.93,10.0,Calm,Calm,-,N/A,,Overcast,0,2014-01-17 06:56:00
2:38 AM,37.9,37.0,97,29.91,2.5,Calm,Calm,-,N/A,,Scattered Clouds,0,2014-01-17 07:38:00
2:56 AM,36.0,35.1,97,29.92,1.2,Calm,Calm,-,N/A,,Clear,0,2014-01-17 07:56:00
3:03 AM,35.1,33.1,92,29.91,0.2,Calm,Calm,-,N/A,Fog,Fog,0,2014-01-17 08:03:00
3:17 AM,34.0,33.1,96,29.91,0.5,Calm,Calm,-,N/A,Fog,Fog,0,2014-01-17 08:17:00
3:25 AM,34.0,32.0,92,29.91,0.2,Calm,Calm,-,N/A,Fog,Fog,0,2014-01-17 08:25:00
3:29 AM,34.0,32.0,92,29.91,0.5,Calm,Calm,-,N/A,Fog,Fog,0,2014-01-17 08:29:00
3:53 AM,32.0,30.2,93,29.92,0.2,Calm,Calm,-,N/A,Fog,Fog,0,2014-01-17 08:53:00
3:56 AM,30.9,30.9,100,29.93,0.2,Calm,Calm,-,N/A,Fog,Light Freezing Fog,0,2014-01-17 08:56:00
4:06 AM,32.0,32.0,100,29.92,0.2,Calm,Calm,-,N/A,Fog,Fog,0,2014-01-17 09:06:00
4:16 AM,34.0,33.1,96,29.92,0.5,Calm,Calm,-,N/A,Fog,Fog,0,2014-01-17 09:16:00
4:39 AM,34.0,33.1,96,29.93,2.0,Calm,Calm,-,N/A,,Overcast,0,2014-01-17 09:39:00
4:47 AM,36.0,34.0,93,29.93,4.0,Calm,Calm,-,N/A,,Overcast,0,2014-01-17 09:47:00
4:56 AM,36.0,35.1,97,29.94,7.0,Calm,Calm,-,N/A,,Overcast,0,2014-01-17 09:56:00
5:43 AM,37.9,37.0,97,29.93,4.0,Calm,Calm,-,N/A,,Overcast,0,2014-01-17 10:43:00
5:47 AM,37.9,36.0,93,29.93,2.5,SSE,4.6,-,N/A,,Overcast,150,2014-01-17 10:47:00
5:56 AM,37.0,37.0,100,29.93,1.0,Calm,Calm,-,N/A,,Overcast,0,2014-01-17 10:56:00
6:42 AM,37.0,36.0,96,29.94,2.5,SW,4.6,-,N/A,,Overcast,230,2014-01-17 11:42:00
6:50 AM,37.4,37.4,100,29.94,3.0,SW,5.8,-,N/A,,Overcast,230,2014-01-17 11:50:00
6:56 AM,37.0,36.0,96,29.95,3.0,SW,5.8,-,N/A,,Overcast,230,2014-01-17 11:56:00
7:09 AM,37.9,37.0,97,29.95,4.0,WSW,4.6,-,N/A,,Overcast,240,2014-01-17 12:09:00
8:33 AM,39.0,37.9,96,29.97,2.5,SSW,6.9,-,N/A,,Overcast,210,2014-01-17 13:33:00
8:52 AM,39.2,37.4,93,29.98,4.0,SW,9.2,-,N/A,,Overcast,220,2014-01-17 13:52:00
8:56 AM,39.0,37.9,96,29.98,5.0,SW,6.9,-,N/A,,Overcast,230,2014-01-17 13:56:00
9:03 AM,39.9,37.0,89,29.98,6.0,SSW,5.8,-,N/A,,Mostly Cloudy,210,2014-01-17 14:03:00
9:37 AM,41.0,37.0,86,29.98,8.0,SSW,11.5,-,N/A,,Scattered Clouds,210,2014-01-17 14:37:00
9:56 AM,41.0,36.0,82,29.99,9.0,SW,11.5,-,N/A,,Partly Cloudy,220,2014-01-17 14:56:00
10:56 AM,43.0,33.1,68,29.98,10.0,SSW,10.4,-,N/A,,Clear,210,2014-01-17 15:56:00
11:56 AM,43.0,32.0,65,29.95,10.0,SW,16.1,25.3,N/A,,Clear,230,2014-01-17 16:56:00
12:56 PM,44.1,30.9,60,29.94,10.0,SSW,12.7,-,N/A,,Clear,210,2014-01-17 17:56:00
1:56 PM,44.1,30.0,58,29.94,10.0,SSW,11.5,-,N/A,,Clear,210,2014-01-17 18:56:00
2:56 PM,43.0,27.0,53,29.95,10.0,SW,11.5,-,N/A,,Clear,230,2014-01-17 19:56:00
3:56 PM,41.0,32.0,70,29.96,10.0,SW,8.1,-,N/A,,Clear,220,2014-01-17 20:56:00
4:56 PM,39.0,28.9,67,29.97,10.0,WSW,9.2,-,N/A,,Clear,240,2014-01-17 21:56:00
5:56 PM,37.0,28.9,73,29.97,10.0,SW,9.2,-,N/A,,Clear,230,2014-01-17 22:56:00
6:56 PM,34.0,28.0,79,29.97,10.0,Calm,Calm,-,N/A,,Clear,0,2014-01-17 23:56:00
7:56 PM,32.0,28.9,88,29.97,9.0,Calm,Calm,-,N/A,,Clear,0,2014-01-18 00:56:00
8:56 PM,30.0,26.1,85,29.97,8.0,Calm,Calm,-,N/A,,Clear,0,2014-01-18 01:56:00
9:56 PM,28.9,27.0,92,29.97,7.0,Calm,Calm,-,N/A,,Clear,0,2014-01-18 02:56:00
10:56 PM,30.9,28.0,89,29.95,8.0,Calm,Calm,-,N/A,,Clear,0,2014-01-18 03:56:00
11:56 PM,32.0,28.9,88,29.93,9.0,Calm,Calm,-,N/A,,Mostly Cloudy,0,2014-01-18 04:56:00